Wells Aircraft, Inc. Branson West
(417) 272-3921
393 Aero Drive
Branson West, MO 65737
(change)

Location

Wells Aircraft rentals are located at the FBO of Branson West Airport (KFWB), in West Branson, Missouri.

Wells Aircraft, Inc.
393 Aero Drive
Branson West, MO 65737
Map
Wells Location at KFWB

Quick Links


AirNav Information
(KFWB)

Branson West Weather

Additional Resources

Be prepared for the weather with these aviation resources.

KBBG 291155Z 31008KT 10SM VCTS BKN050 OVC085 24/21 A3005 RMK LTG DSNT NW-NE                KBBG 291155Z 31008KT 10SM VCTS BKN050 OVC085 24/21 A3005 RMK LTG DSNT NW-NE                KBBG 291155Z 31008KT 10SM VCTS BKN050 OVC085 24/21 A3005 RMK LTG DSNT NW-NE                KBBG 291155Z 31008KT 10SM VCTS BKN050 OVC085 24/21 A3005 RMK LTG DSNT NW-NE                KBBG 291155Z 31008KT 10SM VCTS BKN050 OVC085 24/21 A3005 RMK LTG DSNT NW-NE                KBBG 291155Z 31008KT 10SM VCTS BKN050 OVC085 24/21 A3005 RMK LTG DSNT NW-NE                
 
 
Cirrus Aircraft